Location: Alvis C Story Elementary School
(33.0968°N, 96.6364°W)
Time: 12:32:56
(UTC+00:00)

Lacrosse 5 rocket - Pass Details

Date: 04 July 2022
Orbit: 455 x 628 km, 57.0° (Epoch: 07 August)

Event Time Altitude Azimuth Distance (km) Brightness Sun altitude
Rises 04:34:27 0° 297° (WNW) 2,648 5.6 -27.5°
Reaches altitude 10° 04:37:37 10° 269° (W) 1,798 4.2 -27.8°
Enters shadow 04:38:20 12° 260° (W) 1,690 4.0 -27.9°
